GW1859 Weather Reports


Display with metric or nautical units.
time (UTC)temp
F
wind
direction
speed
MPH
gust
MPH
rain 1hr
in
rain 24hr
in
rain mn
in
humidity
%
barometer
mb
20260509184247 86 357 1.0 2.0 0.00 0.00 0.00 25 1011.5
20260509183743 86 117 1.0 1.0 0.00 0.00 0.00 25 1011.5
20260509183238 87 256 3.0 3.0 0.00 0.00 0.00 25 1011.6
20260509182734 86 138 0.0 0.0 0.00 0.00 0.00 25 1011.5
20260509182232 85 224 2.0 5.0 0.00 0.00 0.00 25 1011.7
20260509181729 85 235 3.0 3.0 0.00 0.00 0.00 25 1011.8
20260509181226 87 352 4.0 6.0 0.00 0.00 0.00 25 1011.6
20260509180723 86 242 1.0 1.0 0.00 0.00 0.00 25 1012.0
20260509180220 84 194 2.0 2.0 0.00 0.00 0.00 26 1012.2
20260509175716 84 213 3.0 5.0 0.00 0.00 0.00 25 1012.3
20260509175212 86 286 5.0 8.0 0.00 0.00 0.00 26 1012.3
20260509174708 85 204 2.0 3.0 0.00 0.00 0.00 26 1012.1
20260509174204 85 199 3.0 5.0 0.00 0.00 0.00 27 1012.4
20260509173700 85 255 5.0 6.0 0.00 0.00 0.00 25 1012.4
20260509173155 85 160 2.0 2.0 0.00 0.00 0.00 26 1012.4
20260509172652 84 222 4.0 5.0 0.00 0.00 0.00 27 1012.5
20260509172148 85 144 1.0 3.0 0.00 0.00 0.00 27 1012.5
20260509171643 84 173 5.0 8.0 0.00 0.00 0.00 26 1012.7
20260509171140 84 206 2.0 3.0 0.00 0.00 0.00 27 1012.8
20260509170638 83 235 2.0 5.0 0.00 0.00 0.00 28 1012.9
20260509170133 83 255 3.0 5.0 0.00 0.00 0.00 28 1012.8
20260509165631 84 253 4.0 5.0 0.00 0.00 0.00 28 1012.9
20260509165127 82 21 2.0 3.0 0.00 0.00 0.00 29 1012.9
20260509164624 84 235 4.0 6.0 0.00 0.00 0.00 28 1012.9
20260509164120 84 174 4.0 6.0 0.00 0.00 0.00 29 1013.1
20260509163617 83 292 3.0 3.0 0.00 0.00 0.00 30 1012.9
20260509163113 83 189 1.0 3.0 0.00 0.00 0.00 31 1012.8
20260509162610 82 198 2.0 2.0 0.00 0.00 0.00 31 1013.0
20260509162105 81 223 2.0 3.0 0.00 0.00 0.00 32 1013.0
20260509161557 81 221 3.0 6.0 0.00 0.00 0.00 32 1012.9
20260509161057 82 201 3.0 3.0 0.00 0.00 0.00 32 1012.9
20260509160553 81 239 2.0 2.0 0.00 0.00 0.00 34 1012.8
20260509160048 80 126 1.0 2.0 0.00 0.00 0.00 33 1013.0
20260509155545 80 50 1.0 2.0 0.00 0.00 0.00 35 1012.8
20260509155041 80 120 3.0 5.0 0.00 0.00 0.00 35 1012.8
20260509154537 80 184 3.0 3.0 0.00 0.00 0.00 36 1012.8
20260509154035 80 167 3.0 3.0 0.00 0.00 0.00 36 1012.9
20260509153532 79 218 1.0 2.0 0.00 0.00 0.00 38 1012.8
20260509153029 78 161 3.0 3.0 0.00 0.00 0.00 40 1012.9
20260509152524 77 189 3.0 3.0 0.00 0.00 0.00 41 1012.8
20260509152021 76 219 3.0 5.0 0.00 0.00 0.00 45 1013.0
20260509151518 74 217 1.0 2.0 0.00 0.00 0.00 50 1012.9
20260509151016 75 201 3.0 3.0 0.00 0.00 0.00 50 1012.9
20260509150513 75 134 1.0 2.0 0.00 0.00 0.00 50 1013.0
20260509150012 74 280 3.0 3.0 0.00 0.00 0.00 51 1012.8
20260509145507 72 229 1.0 2.0 0.00 0.00 0.00 54 1012.8
20260509145002 72 199 1.0 2.0 0.00 0.00 0.00 55 1012.8
20260509144459 72 136 0.0 0.0 0.00 0.00 0.00 55 1012.7
20260509143956 72 145 0.0 0.0 0.00 0.00 0.00 56 1012.6
20260509143453 72 276 2.0 2.0 0.00 0.00 0.00 54 1012.5
20260509142950 72 166 2.0 2.0 0.00 0.00 0.00 53 1012.6
20260509142446 71 175 1.0 1.0 0.00 0.00 0.00 56 1012.6
20260509141942 70 154 1.0 2.0 0.00 0.00 0.00 57 1012.7
20260509141438 69 251 3.0 7.0 0.00 0.00 0.00 58 1012.5
20260509140935 69 157 1.0 1.0 0.00 0.00 0.00 59 1012.5
20260509140431 68 172 1.0 2.0 0.00 0.00 0.00 61 1012.8
20260509135930 68 213 4.0 5.0 0.00 0.00 0.00 60 1012.6
20260509135427 67 179 1.0 2.0 0.00 0.00 0.00 62 1012.5
20260509134925 66 181 3.0 5.0 0.00 0.00 0.00 63 1012.5
20260509134422 65 139 1.0 1.0 0.00 0.00 0.00 65 1012.5
20260509133919 64 156 1.0 1.0 0.00 0.00 0.00 67 1012.3
20260509133415 63 200 3.0 3.0 0.00 0.00 0.00 68 1012.5
20260509132914 62 149 0.0 0.0 0.00 0.00 0.00 70 1012.4
20260509132412 61 192 1.0 2.0 0.00 0.00 0.00 71 1012.5
20260509131908 61 152 0.0 0.0 0.00 0.00 0.00 73 1012.7
20260509131406 60 277 1.0 2.0 0.00 0.00 0.00 75 1013.1
20260509130902 59 188 1.0 2.0 0.00 0.00 0.00 76 1012.8
20260509130357 59 149 0.0 0.0 0.00 0.00 0.00 77 1012.7
20260509125855 57 190 2.0 2.0 0.00 0.00 0.00 77 1012.8
20260509125351 57 144 0.0 0.0 0.00 0.00 0.00 78 1012.8
20260509124847 56 182 0.0 0.0 0.00 0.00 0.00 79 1012.7
20260509124344 55 160 0.0 0.0 0.00 0.00 0.00 79 1012.6
20260509123842 55 159 0.0 0.0 0.00 0.00 0.00 81 1012.4
20260509123339 54 140 0.0 0.0 0.00 0.00 0.00 82 1012.6
20260509122835 54 142 0.0 0.0 0.00 0.00 0.00 82 1012.4
20260509122332 54 144 0.0 0.0 0.00 0.00 0.00 82 1012.3
20260509121829 54 145 0.0 0.0 0.00 0.00 0.00 82 1012.3
20260509121326 54 147 0.0 0.0 0.00 0.00 0.00 81 1012.1
20260509120824 54 154 0.0 0.0 0.00 0.00 0.00 81 1012.1
20260509120322 53 158 0.0 0.0 0.00 0.00 0.00 81 1012.1
20260509115820 53 165 0.0 0.0 0.00 0.00 0.00 81 1012.1
20260509115316 53 192 0.0 0.0 0.00 0.00 0.00 82 1012.1
20260509114814 52 153 0.0 0.0 0.00 0.00 0.00 83 1012.2
20260509114313 52 137 0.0 0.0 0.00 0.00 0.00 83 1012.2
20260509113812 52 146 0.0 0.0 0.00 0.00 0.00 83 1011.8
20260509113308 52 151 0.0 0.0 0.00 0.00 0.00 82 1012.0
20260509112805 52 160 1.0 1.0 0.00 0.00 0.00 83 1011.8
20260509112306 52 151 0.0 0.0 0.00 0.00 0.00 83 1011.7
20260509111759 52 144 0.0 0.0 0.00 0.00 0.00 83 1011.7
20260509111256 52 144 0.0 0.0 0.00 0.00 0.00 83 1011.6
20260509110753 52 145 0.0 0.0 0.00 0.00 0.00 83 1011.6
20260509110249 52 144 0.0 0.0 0.00 0.00 0.00 83 1011.6
20260509105748 52 144 0.0 0.0 0.00 0.00 0.00 83 1011.7
20260509105245 52 145 0.0 0.0 0.00 0.00 0.00 82 1011.5
20260509104742 52 145 0.0 0.0 0.00 0.00 0.00 82 1011.7
20260509104239 52 145 0.0 0.0 0.00 0.00 0.00 83 1011.6
20260509103737 52 146 0.0 0.0 0.00 0.00 0.00 82 1011.6
20260509103234 52 149 0.0 0.0 0.00 0.00 0.00 82 1011.8
20260509102732 52 157 0.0 0.0 0.00 0.00 0.00 82 1011.8
20260509102229 52 155 0.0 0.0 0.00 0.00 0.00 82 1011.8
20260509101725 52 151 0.0 0.0 0.00 0.00 0.00 82 1012.0
20260509101221 52 147 0.0 0.0 0.00 0.00 0.00 81 1012.1
20260509100719 52 150 0.0 0.0 0.00 0.00 0.00 81 1011.8
20260509100216 53 156 0.0 0.0 0.00 0.00 0.00 80 1011.8
20260509095713 52 195 0.0 0.0 0.00 0.00 0.00 80 1012.2
20260509095210 53 153 0.0 0.0 0.00 0.00 0.00 80 1012.1
20260509094707 53 146 0.0 0.0 0.00 0.00 0.00 80 1012.2
20260509094204 53 147 0.0 0.0 0.00 0.00 0.00 79 1012.0
20260509093702 53 171 0.0 0.0 0.00 0.00 0.00 79 1012.2
20260509093159 53 171 1.0 1.0 0.00 0.00 0.00 79 1012.0
20260509092657 53 152 0.0 0.0 0.00 0.00 0.00 79 1012.1
20260509092155 53 168 0.0 0.0 0.00 0.00 0.00 79 1011.7
20260509091653 53 177 0.0 0.0 0.00 0.00 0.00 78 1011.8
20260509091148 53 154 0.0 0.0 0.00 0.00 0.00 77 1012.0
20260509090646 53 150 0.0 0.0 0.00 0.00 0.00 77 1012.0
20260509090143 53 162 0.0 0.0 0.00 0.00 0.00 77 1012.0
20260509085641 53 172 0.0 1.0 0.00 0.00 0.00 76 1012.2
20260509085137 53 162 0.0 1.0 0.00 0.00 0.00 76 1012.0
20260509084634 53 187 1.0 2.0 0.00 0.00 0.00 76 1012.2
20260509084131 53 183 1.0 1.0 0.00 0.00 0.00 77 1012.1
20260509083629 53 148 0.0 0.0 0.00 0.00 0.00 78 1012.1
20260509083125 53 150 0.0 0.0 0.00 0.00 0.00 78 1012.1
20260509082623 53 149 0.0 0.0 0.00 0.00 0.00 78 1012.3
20260509082119 53 153 0.0 0.0 0.00 0.00 0.00 77 1012.2
20260509081616 53 204 1.0 1.0 0.00 0.00 0.00 77 1012.1
20260509081113 53 197 0.0 0.0 0.00 0.00 0.00 76 1012.2
20260509080612 53 165 0.0 0.0 0.00 0.00 0.00 76 1012.2
20260509080109 54 188 0.0 0.0 0.00 0.00 0.00 76 1012.3
20260509075607 54 176 0.0 0.0 0.00 0.00 0.00 75 1012.2
20260509075104 54 166 0.0 0.0 0.00 0.00 0.00 75 1012.3
20260509074601 54 172 0.0 1.0 0.00 0.00 0.00 74 1012.2
20260509074057 55 151 0.0 0.0 0.00 0.00 0.00 74 1012.1
20260509073554 55 164 1.0 1.0 0.00 0.00 0.00 73 1012.3
20260509073050 55 201 1.0 1.0 0.00 0.00 0.00 72 1012.3
20260509072547 55 174 0.0 1.0 0.00 0.00 0.00 72 1012.3
20260509072044 55 172 2.0 3.0 0.00 0.00 0.00 71 1012.3
20260509071541 55 181 2.0 2.0 0.00 0.00 0.00 70 1012.4
20260509071038 56 184 1.0 1.0 0.00 0.00 0.00 69 1012.1
20260509070536 56 152 0.0 0.0 0.00 0.00 0.00 70 1012.5
20260509070032 56 209 0.0 1.0 0.00 0.00 0.00 69 1012.2
20260509065527 56 202 1.0 2.0 0.00 0.00 0.00 69 1012.3
20260509065024 55 146 0.0 0.0 0.00 0.00 0.00 71 1012.2
20260509064521 55 147 0.0 0.0 0.00 0.00 0.00 71 1012.1
20260509064019 55 147 0.0 0.0 0.00 0.00 0.00 71 1012.3
20260509063514 54 147 0.0 0.0 0.00 0.00 0.00 72 1012.3
20260509063012 54 149 0.0 0.0 0.00 0.00 0.00 73 1012.1
20260509062509 53 140 0.0 0.0 0.00 0.00 0.00 75 1012.3
20260509062007 51 138 0.0 0.0 0.00 0.00 0.00 78 1012.1
20260509061504 51 138 0.0 0.0 0.00 0.00 0.00 78 1012.0
20260509061001 51 139 0.0 0.0 0.00 0.00 0.00 79 1012.1
20260509060458 51 139 0.0 0.0 0.00 0.00 0.00 80 1012.3
20260509055953 51 139 0.0 0.0 0.00 0.00 0.00 79 1012.3
20260509055449 52 139 0.0 0.0 0.00 0.00 0.00 79 1012.2
20260509054945 52 139 0.0 0.0 0.00 0.00 0.00 79 1012.2
20260509054442 52 139 0.0 0.0 0.00 0.00 0.00 79 1012.2
20260509053940 52 139 0.0 0.0 0.00 0.00 0.00 78 1012.3
20260509053438 52 139 0.0 0.0 0.00 0.00 0.00 78 1012.2
20260509052935 53 139 0.0 0.0 0.00 0.00 0.00 77 1012.1
20260509052433 53 139 0.0 0.0 0.00 0.00 0.00 77 1012.1
20260509051931 53 139 0.0 0.0 0.00 0.00 0.00 75 1012.3
20260509051428 53 139 0.0 0.0 0.00 0.00 0.00 74 1012.3
20260509050925 54 139 0.0 0.0 0.00 0.00 0.00 75 1012.0
20260509050421 54 140 0.0 0.0 0.00 0.00 0.00 73 1012.3
20260509045918 55 140 0.0 0.0 0.00 0.00 0.00 73 1012.3
20260509045415 55 140 0.0 0.0 0.00 0.00 0.00 71 1012.3
20260509044912 56 140 0.0 0.0 0.00 0.00 0.00 71 1012.3
20260509044410 56 140 0.0 0.0 0.00 0.00 0.00 69 1012.3
20260509043907 57 141 0.0 0.0 0.00 0.00 0.00 68 1012.5
20260509043402 57 147 0.0 0.0 0.00 0.00 0.00 68 1012.2
20260509042858 57 152 0.0 0.0 0.00 0.00 0.00 66 1012.5
20260509042355 56 149 0.0 0.0 0.00 0.00 0.00 68 1012.4
20260509041851 55 150 0.0 0.0 0.00 0.00 0.00 71 1012.3
20260509041343 54 156 0.0 0.0 0.00 0.00 0.00 75 1012.2
20260509040841 53 125 0.0 0.0 0.00 0.00 0.00 77 1012.3
20260509040339 54 125 0.0 0.0 0.00 0.00 0.00 76 1012.2
20260509035835 54 125 0.0 0.0 0.00 0.00 0.00 76 1012.3
20260509035333 54 125 0.0 0.0 0.00 0.00 0.00 74 1012.3
20260509034828 55 125 0.0 0.0 0.00 0.00 0.00 75 1012.2
20260509034327 55 125 0.0 0.0 0.00 0.00 0.00 74 1012.1
20260509033823 55 125 0.0 0.0 0.00 0.00 0.00 72 1012.4
20260509033321 56 125 0.0 0.0 0.00 0.00 0.00 72 1012.1
20260509032817 56 125 0.0 0.0 0.00 0.00 0.00 71 1012.1
20260509032314 56 125 0.0 0.0 0.00 0.00 0.00 71 1012.2
20260509031812 57 125 0.0 0.0 0.00 0.00 0.00 70 1011.7
20260509031309 57 125 0.0 0.0 0.00 0.00 0.00 70 1012.0
20260509030807 57 125 0.0 0.0 0.00 0.00 0.00 69 1011.8
20260509030305 57 125 0.0 0.0 0.00 0.00 0.00 69 1011.8
20260509025801 57 125 0.0 0.0 0.00 0.00 0.00 69 1011.7
20260509025256 57 125 0.0 0.0 0.00 0.00 0.00 69 1012.0
20260509024752 58 125 0.0 0.0 0.00 0.00 0.00 69 1011.8
20260509024248 58 125 0.0 0.0 0.00 0.00 0.00 67 1011.6
20260509023746 59 125 0.0 0.0 0.00 0.00 0.00 66 1011.5
20260509023243 59 125 0.0 0.0 0.00 0.00 0.00 65 1011.4
20260509022739 60 125 0.0 0.0 0.00 0.00 0.00 63 1011.3
20260509022237 60 125 0.0 0.0 0.00 0.00 0.00 61 1011.2
20260509021733 61 125 0.0 0.0 0.00 0.00 0.00 60 1011.3
20260509021231 62 125 0.0 0.0 0.00 0.00 0.00 59 1011.4
20260509020729 63 125 0.0 0.0 0.00 0.00 0.00 58 1010.9
20260509020226 64 125 0.0 0.0 0.00 0.00 0.00 56 1011.2
20260509015724 64 125 0.0 0.0 0.00 0.00 0.00 54 1011.2
20260509015222 65 125 0.0 0.0 0.00 0.00 0.00 54 1011.0
20260509014718 65 123 0.0 0.0 0.00 0.00 0.00 53 1011.0
20260509014215 66 123 0.0 0.0 0.00 0.00 0.00 51 1010.8
20260509013712 67 125 0.0 0.0 0.00 0.00 0.00 51 1011.1
20260509013207 67 124 0.0 0.0 0.00 0.00 0.00 50 1010.9
20260509012704 68 110 0.0 1.0 0.00 0.00 0.00 49 1010.9
20260509012201 68 107 1.0 1.0 0.00 0.00 0.00 48 1010.7
20260509011658 69 116 0.0 0.0 0.00 0.00 0.00 47 1010.8
20260509011155 69 130 0.0 0.0 0.00 0.00 0.00 47 1010.6
20260509010653 70 123 0.0 0.0 0.00 0.00 0.00 47 1010.5
20260509010149 71 130 0.0 0.0 0.00 0.00 0.00 46 1010.7
20260509005647 71 120 0.0 0.0 0.00 0.00 0.00 45 1010.7
20260509005144 72 127 0.0 0.0 0.00 0.00 0.00 44 1010.6
20260509004639 73 115 0.0 1.0 0.00 0.00 0.00 43 1010.6
20260509004136 73 122 1.0 1.0 0.00 0.00 0.00 44 1010.6
20260509003635 73 102 2.0 2.0 0.00 0.00 0.00 42 1010.3
20260509003132 74 315 3.0 8.0 0.00 0.00 0.00 41 1010.3
20260509002629 75 115 0.0 0.0 0.00 0.00 0.00 41 1010.2
20260509002126 76 117 0.0 0.0 0.00 0.00 0.00 40 1010.3
20260509001624 77 163 0.0 0.0 0.00 0.00 0.00 40 1010.1
20260509001119 77 356 2.0 2.0 0.00 0.00 0.00 38 1010.0
20260509000618 77 112 2.0 2.0 0.00 0.00 0.00 39 1009.8
20260509000114 78 100 1.0 2.0 0.00 0.00 0.00 38 1009.8
20260508235612 77 124 0.0 0.0 0.00 0.00 0.00 40 1010.0
20260508235108 77 87 0.0 1.0 0.00 0.00 0.00 39 1009.9
20260508234606 79 350 1.0 6.0 0.00 0.00 0.00 38 1010.0
20260508234102 79 111 1.0 1.0 0.00 0.00 0.00 39 1009.8
20260508233601 79 312 3.0 5.0 0.00 0.00 0.00 37 1009.8
20260508233059 78 329 3.0 7.0 0.00 0.00 0.00 37 1009.9
20260508232555 79 62 1.0 3.0 0.00 0.00 0.00 37 1009.7
20260508232052 80 69 1.0 2.0 0.00 0.00 0.00 37 1009.3
20260508231550 80 137 0.0 0.0 0.00 0.00 0.00 37 1009.3
20260508231047 80 140 1.0 2.0 0.00 0.00 0.00 37 1009.5
20260508230543 80 125 2.0 2.0 0.00 0.00 0.00 36 1009.3
20260508230040 80 106 1.0 2.0 0.00 0.00 0.00 37 1009.3
20260508225537 80 316 1.0 3.0 0.00 0.00 0.00 37 1009.6
20260508225034 80 43 3.0 6.0 0.00 0.00 0.00 36 1009.3
20260508224532 81 326 7.0 10.0 0.00 0.00 0.00 37 1009.2
20260508224029 80 104 2.0 2.0 0.00 0.00 0.00 39 1009.1
20260508223527 81 102 2.0 3.0 0.00 0.00 0.00 39 1009.2
20260508223024 80 115 0.0 0.0 0.00 0.00 0.00 41 1009.3
20260508222521 82 347 1.0 2.0 0.00 0.00 0.00 40 1009.0
20260508222018 81 105 2.0 2.0 0.00 0.00 0.00 42 1009.2
20260508221514 80 96 2.0 5.0 0.00 0.00 0.00 42 1008.9
20260508221010 82 75 3.0 6.0 0.00 0.00 0.00 40 1009.0
20260508220507 83 290 2.0 2.0 0.00 0.00 0.00 38 1008.7
20260508220003 82 85 2.0 2.0 0.00 0.00 0.00 37 1008.9
20260508215500 82 26 5.0 7.0 0.00 0.00 0.00 37 1008.8
20260508214956 82 125 0.0 0.0 0.00 0.00 0.00 38 1009.1
20260508214454 81 68 4.0 5.0 0.00 0.00 0.00 38 1008.8
20260508213950 83 7 4.0 6.0 0.00 0.00 0.00 36 1008.7
20260508213448 83 19 3.0 5.0 0.00 0.00 0.00 37 1008.7
20260508212943 82 128 0.0 1.0 0.00 0.00 0.00 39 1008.7
20260508212440 82 331 3.0 3.0 0.00 0.00 0.00 38 1009.0
20260508211936 81 124 2.0 2.0 0.00 0.00 0.00 38 1009.2
20260508211431 81 125 0.0 1.0 0.00 0.00 0.00 41 1009.1
20260508210929 80 103 2.0 2.0 0.00 0.00 0.00 41 1009.1
20260508210426 81 115 2.0 2.0 0.00 0.00 0.00 39 1009.2
20260508205922 78 17 2.0 3.0 0.00 0.00 0.00 41 1009.2
20260508205419 78 122 1.0 3.0 0.00 0.00 0.00 41 1008.8
20260508204915 78 240 1.0 2.0 0.00 0.00 0.00 42 1009.3
20260508204413 78 119 1.0 1.0 0.00 0.00 0.00 45 1009.2
20260508203908 77 48 3.0 5.0 0.00 0.00 0.00 45 1009.5
20260508203404 77 121 0.0 1.0 0.00 0.00 0.00 47 1009.3
20260508202900 78 19 3.0 5.0 0.00 0.00 0.00 43 1009.6
20260508202358 79 298 3.0 3.0 0.00 0.00 0.00 43 1009.7
20260508201855 81 300 3.0 3.0 0.00 0.00 0.00 41 1009.7
20260508201351 80 107 1.0 2.0 0.00 0.00 0.00 45 1009.7
20260508200848 80 144 0.0 0.0 0.00 0.00 0.00 45 1009.6
20260508200345 78 98 0.0 0.0 0.00 0.00 0.00 46 1009.5
20260508195840 77 261 2.0 2.0 0.00 0.00 0.00 49 1009.7
20260508195337 74 277 3.0 3.0 0.00 0.00 0.00 49 1010.0
20260508194833 73 79 1.0 2.0 0.00 0.00 0.00 49 1009.9
20260508194331 73 126 0.0 0.0 0.00 0.00 0.00 52 1009.8
20260508193828 72 84 1.0 2.0 0.00 0.00 0.00 52 1010.1
20260508193324 73 131 0.0 0.0 0.00 0.00 0.00 54 1010.3
20260508192820 72 162 2.0 2.0 0.00 0.00 0.00 53 1010.2
20260508192318 73 203 2.0 2.0 0.00 0.00 0.00 52 1010.2
20260508191814 73 241 1.0 2.0 0.00 0.00 0.00 51 1010.4
20260508191312 73 239 3.0 3.0 0.00 0.00 0.00 52 1010.6
20260508190804 72 155 1.0 1.0 0.00 0.00 0.00 54 1010.2
20260508190259 72 145 2.0 2.0 0.00 0.00 0.00 54 1010.3
20260508185756 73 126 0.0 0.0 0.00 0.00 0.00 55 1010.0
20260508185254 73 348 2.0 2.0 0.00 0.00 0.00 53 1009.7
20260508184750 71 286 2.0 2.0 0.00 0.00 0.00 54 1009.6